FW9176 Weather Reports


Display with metric or nautical units.
time (UTC)temp
F
wind
direction
speed
MPH
gust
MPH
rain 1hr
in
rain 24hr
in
rain mn
in
humidity
%
barometer
mb
20260904210058 92 229 2.0 8.0 0.00 0.00 0.00 61 1009.7
20260904204559 92 151 0.0 2.0 0.00 0.00 0.00 60 1010.1
20260904203101 92 0 0.0 4.0 0.00 0.00 0.00 61 1010.4
20260904201614 91 0 0.0 7.0 0.00 0.00 0.00 62 1010.6
20260904200100 90 0 1.0 9.0 0.00 0.00 0.00 62 1010.9
20260904194555 90 150 1.0 7.0 0.00 0.00 0.00 63 1011.0
20260904193100 90 184 1.0 7.0 0.00 0.00 0.00 62 1011.3
20260904191556 90 159 0.0 10.0 0.00 0.00 0.00 61 1011.4
20260904190058 90 116 1.0 7.0 0.00 0.00 0.00 62 1011.7
20260904184602 89 0 1.0 9.0 0.00 0.00 0.00 61 1011.9
20260904183115 89 0 0.0 4.0 0.00 0.00 0.00 59 1011.8
20260904181556 87 74 1.0 6.0 0.00 0.00 0.00 60 1011.9
20260904180103 87 86 1.0 4.0 0.00 0.00 0.00 61 1012.7
20260904174601 86 77 0.0 3.0 0.00 0.00 0.00 64 1013.3
20260904173101 84 131 0.0 4.0 0.00 0.00 0.00 65 1013.7
20260904171614 84 65 1.0 4.0 0.00 0.00 0.00 64 1014.0
20260904170125 83 128 2.0 4.0 0.00 0.00 0.00 64 1014.1
20260904164619 82 0 0.0 4.0 0.00 0.00 0.00 67 1014.4
20260904163101 81 53 1.0 7.0 0.00 0.00 0.00 67 1014.5
20260904161559 81 41 2.0 5.0 0.00 0.00 0.00 68 1014.7
20260904160059 83 52 2.0 4.0 0.00 0.00 0.00 67 1014.3
20260904154559 82 53 1.0 3.0 0.00 0.00 0.00 71 1014.1
20260904153109 82 62 0.0 3.0 0.00 0.00 0.00 73 1013.7
20260904151601 82 0 0.0 3.0 0.00 0.00 0.00 74 1013.5
20260904150058 82 59 0.0 2.0 0.00 0.00 0.00 74 1013.2
20260904144559 83 0 0.0 0.0 0.00 0.00 0.00 73 1013.0
20260904143106 82 0 0.0 1.0 0.00 0.00 0.00 73 1013.0
20260904141602 82 0 0.0 2.0 0.00 0.00 0.00 75 1012.9
20260904140100 82 0 0.0 2.0 0.00 0.00 0.00 74 1012.7
20260904134601 81 0 0.0 0.0 0.00 0.00 0.00 73 1012.5
20260904133100 80 0 0.0 0.0 0.00 0.00 0.00 74 1012.2
20260904131612 79 0 0.0 0.0 0.00 0.00 0.00 76 1012.3
20260904130056 78 0 0.0 0.0 0.00 0.00 0.00 78 1012.0
20260904124559 78 0 0.0 0.0 0.00 0.00 0.00 79 1011.9
20260904123100 77 0 0.0 0.0 0.00 0.00 0.00 80 1011.7
20260904121601 77 0 0.0 0.0 0.00 0.00 0.00 79 1011.2
20260904120103 77 0 0.0 0.0 0.00 0.00 0.00 79 1010.9
20260904114606 77 0 0.0 0.0 0.00 0.00 0.00 78 1010.6
20260904113100 77 0 0.0 0.0 0.00 0.00 0.00 78 1010.4
20260904111558 78 0 0.0 0.0 0.00 0.00 0.00 77 1010.4
20260904104601 78 0 0.0 2.0 0.00 0.00 0.00 76 1009.9
20260904103112 78 0 0.0 0.0 0.00 0.00 0.00 76 1009.9
20260904101610 79 136 0.0 2.0 0.00 0.00 0.00 76 1010.0
20260904100111 78 0 0.0 1.0 0.00 0.00 0.00 77 1009.8
20260904094611 78 0 0.0 1.0 0.00 0.00 0.00 78 1009.7
20260904093108 78 0 0.0 0.0 0.00 0.00 0.00 79 1009.9
20260904091611 78 0 0.0 0.0 0.00 0.00 0.00 79 1010.2
20260904090057 78 0 0.0 0.0 0.00 0.00 0.00 79 1010.5
20260904084558 78 0 0.0 0.0 0.00 0.00 0.00 80 1010.7
20260904083104 79 0 0.0 0.0 0.00 0.00 0.00 79 1010.7
20260904081609 79 0 0.0 0.0 0.00 0.00 0.00 78 1010.6
20260904074559 80 0 0.0 3.0 0.00 0.00 0.00 78 1010.1
20260904073126 80 141 0.0 3.0 0.00 0.00 0.00 78 1009.8
20260904071604 80 0 0.0 3.0 0.00 0.00 0.00 78 1009.8
20260904064605 80 0 0.0 3.0 0.00 0.00 0.00 79 1010.3
20260904063109 80 0 0.0 0.0 0.00 0.00 0.00 79 1010.8
20260904061557 80 0 0.0 0.0 0.00 0.00 0.00 79 1011.2
20260904060129 80 0 0.0 1.0 0.00 0.00 0.00 78 1011.3
20260904054628 81 0 0.0 0.0 0.00 0.00 0.00 78 1011.4
20260904053104 81 0 0.0 2.0 0.00 0.00 0.00 78 1011.4
20260904051601 81 170 0.0 2.0 0.00 0.00 0.00 77 1011.2
20260904050059 82 164 0.0 1.0 0.00 0.00 0.00 77 1011.0
20260904044604 82 0 0.0 1.0 0.00 0.00 0.00 77 1011.0
20260904043105 82 0 0.0 0.0 0.00 0.00 0.00 77 1011.2
20260904041608 82 0 0.0 1.0 0.00 0.00 0.00 76 1011.3
20260904034558 83 0 0.0 0.0 0.00 0.00 0.00 76 1011.3
20260904033101 83 0 0.0 2.0 0.00 0.00 0.00 76 1011.3
20260904031605 83 0 0.0 0.0 0.00 0.00 0.00 75 1011.4
20260904030103 83 0 0.0 1.0 0.00 0.00 0.00 75 1011.3
20260904024604 83 0 0.0 1.0 0.00 0.00 0.00 74 1011.3
20260904023102 83 0 0.0 0.0 0.00 0.00 0.00 75 1011.4
20260904021555 83 0 0.0 0.0 0.00 0.00 0.00 74 1011.3
20260904020105 83 0 0.0 0.0 0.00 0.00 0.00 74 1011.1
20260904014620 83 0 0.0 0.0 0.00 0.00 0.00 73 1011.1
20260904013121 84 0 0.0 1.0 0.00 0.00 0.00 72 1011.0
20260904011603 84 0 0.0 1.0 0.00 0.00 0.00 72 1010.7
20260904010115 84 0 0.0 1.0 0.00 0.00 0.00 71 1010.2
20260904004618 84 0 0.0 1.0 0.00 0.00 0.00 70 1010.1
20260904003121 84 0 0.0 1.0 0.00 0.00 0.00 69 1010.0
20260904001601 85 0 0.0 1.0 0.00 0.00 0.00 69 1010.2
20260904000101 85 0 0.0 1.0 0.00 0.00 0.00 68 1010.3
20260903234601 86 0 0.0 1.0 0.00 0.00 0.00 67 1010.5
20260903233104 86 0 0.0 1.0 0.00 0.00 0.00 67 1010.5
20260903231606 86 79 0.0 1.0 0.00 0.00 0.00 66 1010.6
20260903230103 86 0 0.0 2.0 0.00 0.00 0.00 65 1010.7
20260903224557 87 0 0.0 2.0 0.00 0.00 0.00 64 1010.5
20260903223114 88 68 1.0 2.0 0.00 0.00 0.00 63 1010.4
20260903221559 89 73 0.0 2.0 0.00 0.00 0.00 59 1010.6
20260903220101 91 0 0.0 1.0 0.00 0.00 0.00 59 1010.7
20260903214606 91 188 1.0 4.0 0.00 0.00 0.00 62 1010.5
20260903213105 91 165 0.0 4.0 0.00 0.00 0.00 61 1010.6
20260903211612 91 0 0.0 4.0 0.00 0.00 0.00 61 1010.8